Tracking 28081 objects as of 27-Sep-2023
HD Live streaming from Space Station
objects crossing your sky now

OBJECT B

Track OBJECT B now!
10-day predictions


NORAD ID: 55134
Int'l Code: 2023-003B
Perigee: 484.0 km
Apogee: 502.6 km
Inclination: 97.3 °
Period: 94.3 minutes
Semi major axis: 6864 km
RCS: Unknown
Launch date: January 9, 2023
Source: People's Republic of China (PRC)
Launch site: Jiuquan Satellite Launch Center, China (JSC)
Your satellite tracking list
Your tracking list is empty




NASA's NSSDC Master Catalog

Two Line Element Set (TLE):
1 55134U 23003B   23270.08135639  .00016059  00000-0  61491-3 0  9990
2 55134  97.2571 351.9356 0013509  90.9134 269.3653 15.26539637 39718
Source of the keplerian elements: AFSPC